Total_Precipitation_Accumulation
0.89 0.80 0.65 0.57 0.49 0.45 0.39 0.35 0.30 0.30 0.30 0.30 0.28 0.24 0.22 0.20 0.18 0.16 0.15 0.14 0.14 0.18 0.28 0.38 0.43 0.46 0.51 0.55 0.53 0.53 0.50 0.48 0.47 0.47 0.46 0.46 0.45 0.45 0.47 0.48 0.47 0.47 0.49
1.00 0.95 0.88 0.77 0.67 0.63 0.56 0.45 0.37 0.34 0.34 0.32 0.29 0.27 0.26 0.24 0.22 0.19 0.15 0.13 0.12 0.12 0.18 0.32 0.48 0.59 0.65 0.71 0.70 0.67 0.61 0.57 0.56 0.55 0.54 0.54 0.53 0.52 0.53 0.54 0.54 0.55 0.58
1.10 1.07 0.97 0.88 0.76 0.76 0.76 0.70 0.59 0.49 0.42 0.37 0.31 0.28 0.28 0.26 0.24 0.23 0.22 0.18 0.14 0.12 0.13 0.22 0.38 0.54 0.64 0.74 0.79 0.81 0.76 0.67 0.64 0.63 0.63 0.63 0.61 0.60 0.61 0.63 0.65 0.68 0.69
1.16 1.16 1.05 0.96 0.91 0.83 0.78 0.75 0.72 0.65 0.58 0.54 0.46 0.40 0.36 0.30 0.24 0.22 0.21 0.22 0.22 0.19 0.16 0.19 0.26 0.35 0.47 0.58 0.76 0.91 0.96 0.89 0.77 0.71 0.69 0.70 0.71 0.73 0.75 0.77 0.78 0.79 0.77
1.31 1.25 1.11 0.99 1.04 1.00 0.86 0.81 0.74 0.67 0.60 0.55 0.53 0.49 0.44 0.40 0.33 0.27 0.22 0.19 0.19 0.20 0.20 0.20 0.22 0.25 0.33 0.42 0.60 0.84 0.98 1.03 0.97 0.87 0.81 0.78 0.80 0.83 0.89 0.93 0.91 0.88 0.88
1.37 1.40 1.28 1.16 1.12 1.10 1.00 0.89 0.80 0.69 0.60 0.59 0.58 0.52 0.49 0.50 0.44 0.38 0.32 0.27 0.22 0.20 0.20 0.20 0.20 0.21 0.24 0.33 0.45 0.62 0.81 0.95 1.01 1.03 1.00 0.98 0.97 1.00 1.06 1.10 1.09 1.07 1.09
1.35 1.42 1.40 1.31 1.23 1.10 1.05 0.99 0.93 0.84 0.71 0.66 0.65 0.52 0.43 0.44 0.45 0.40 0.36 0.33 0.29 0.27 0.25 0.24 0.25 0.25 0.25 0.28 0.33 0.41 0.53 0.68 0.84 0.97 1.02 1.05 1.08 1.11 1.14 1.20 1.25 1.24 1.28
1.40 1.36 1.40 1.41 1.37 1.26 1.16 1.10 1.07 0.99 0.88 0.83 0.81 0.77 0.58 0.43 0.38 0.37 0.35 0.34 0.33 0.34 0.33 0.33 0.32 0.33 0.32 0.31 0.29 0.32 0.36 0.49 0.72 0.98 1.12 1.17 1.24 1.27 1.30 1.37 1.45 1.50 1.56
1.51 1.41 1.38 1.45 1.44 1.39 1.33 1.31 1.32 1.28 1.17 1.10 1.03 1.07 0.88 0.59 0.42 0.37 0.38 0.36 0.36 0.36 0.37 0.38 0.37 0.36 0.36 0.36 0.34 0.35 0.39 0.46 0.64 0.94 1.19 1.30 1.37 1.44 1.54 1.64 1.73 1.81 1.82
1.59 1.56 1.50 1.47 1.45 1.42 1.37 1.40 1.48 1.51 1.48 1.39 1.28 1.14 1.02 0.84 0.71 0.51 0.38 0.38 0.40 0.38 0.40 0.40 0.41 0.41 0.38 0.39 0.40 0.43 0.49 0.56 0.70 0.95 1.26 1.49 1.64 1.79 1.93 2.07 2.14 2.18 2.13
1.63 1.55 1.51 1.48 1.40 1.38 1.38 1.38 1.42 1.51 1.53 1.45 1.34 1.27 1.19 1.01 0.84 0.75 0.53 0.38 0.39 0.40 0.39 0.38 0.37 0.36 0.38 0.40 0.45 0.53 0.65 0.72 0.84 1.05 1.38 1.70 1.93 2.16 2.38 2.55 2.65 2.64 2.54
1.59 1.53 1.47 1.42 1.36 1.30 1.30 1.34 1.39 1.47 1.52 1.46 1.35 1.23 1.19 1.11 0.95 0.90 0.79 0.58 0.51 0.45 0.43 0.41 0.41 0.42 0.44 0.49 0.57 0.70 0.76 0.82 0.96 1.17 1.52 1.78 1.98 2.21 2.38 2.57 2.72 2.73 2.71
1.49 1.36 1.34 1.33 1.32 1.26 1.27 1.32 1.35 1.34 1.41 1.41 1.37 1.27 1.19 1.08 0.99 1.02 1.02 0.87 0.73 0.58 0.52 0.49 0.49 0.54 0.60 0.67 0.73 0.85 0.84 0.87 0.95 1.09 1.37 1.64 1.73 1.83 2.01 2.26 2.51 2.64 2.64
1.60 1.45 1.39 1.36 1.37 1.36 1.32 1.31 1.28 1.25 1.28 1.32 1.32 1.29 1.24 1.14 1.08 1.08 1.12 1.20 1.15 0.92 0.78 0.70 0.68 0.72 0.77 0.82 0.90 0.97 0.87 0.95 0.94 0.98 1.13 1.32 1.37 1.38 1.44 1.62 1.88 2.09 2.25
1.53 1.47 1.43 1.40 1.37 1.38 1.37 1.35 1.31 1.20 1.15 1.16 1.17 1.19 1.16 1.10 1.09 1.13 1.21 1.35 1.51 1.41 1.10 0.88 0.88 0.89 0.92 0.91 0.95 0.86 0.75 0.88 0.91 0.89 0.93 1.01 1.06 1.03 1.04 1.18 1.32 1.43 1.55
1.31 1.32 1.33 1.31 1.29 1.27 1.29 1.28 1.26 1.20 1.13 1.06 1.06 1.11 1.11 1.08 1.09 1.12 1.19 1.29 1.43 1.55 1.38 1.01 0.86 0.82 0.84 0.82 0.89 0.77 0.70 0.83 0.79 0.78 0.80 0.84 0.88 0.87 0.88 0.96 1.05 1.11 1.12
1.19 1.22 1.21 1.17 1.18 1.17 1.16 1.18 1.17 1.14 1.10 1.02 0.95 0.98 1.00 0.99 1.01 1.04 1.08 1.14 1.21 1.29 1.30 1.02 0.81 0.76 0.76 0.72 0.72 0.65 0.60 0.60 0.60 0.71 0.72 0.72 0.72 0.71 0.76 0.82 0.88 0.94 0.97
0.95 1.04 1.06 1.02 1.00 0.99 0.98 0.98 0.99 0.98 1.00 0.98 0.91 0.87 0.86 0.87 0.91 0.92 0.97 1.00 1.01 1.02 1.06 0.96 0.77 0.68 0.63 0.58 0.54 0.50 0.47 0.46 0.45 0.56 0.57 0.58 0.61 0.61 0.61 0.63 0.70 0.75 0.80
0.73 0.79 0.87 0.88 0.87 0.84 0.81 0.80 0.80 0.79 0.78 0.82 0.85 0.84 0.82 0.85 0.91 0.93 0.92 0.89 0.85 0.85 0.86 0.85 0.70 0.58 0.53 0.50 0.49 0.45 0.39 0.36 0.34 0.40 0.44 0.45 0.47 0.51 0.55 0.57 0.58 0.61 0.62
0.67 0.68 0.71 0.76 0.79 0.81 0.82 0.80 0.79 0.80 0.80 0.80 0.83 0.89 0.91 0.91 0.90 0.90 0.89 0.87 0.86 0.87 0.84 0.85 0.80 0.68 0.60 0.52 0.51 0.48 0.43 0.38 0.35 0.32 0.39 0.42 0.45 0.49 0.51 0.51 0.47 0.45 0.45
0.69 0.67 0.70 0.72 0.77 0.82 0.86 0.91 0.93 0.98 1.04 1.06 1.05 1.02 1.01 1.02 0.99 0.93 0.88 0.86 0.87 0.91 0.94 0.96 0.90 0.77 0.63 0.56 0.52 0.47 0.47 0.46 0.45 0.41 0.41 0.39 0.39 0.38 0.38 0.41 0.43 0.43 0.44
0.74 0.71 0.74 0.78 0.83 0.89 1.06 1.08 1.02 1.03 1.09 1.09 1.05 0.99 0.94 0.94 0.89 0.90 0.87 0.84 0.88 0.97 1.06 1.06 0.93 0.74 0.54 0.46 0.47 0.54 0.63 0.72 0.65 0.44 0.42 0.41 0.38 0.39 0.36 0.35 0.41 0.44 0.49
0.79 0.79 0.83 0.91 0.97 1.03 1.11 1.02 1.00 0.93 0.93 0.90 0.86 0.84 0.81 0.79 0.79 0.71 0.77 0.86 0.90 0.97 0.96 0.88 0.78 0.63 0.55 0.50 0.61 0.76 0.76 0.74 0.58 0.40 0.47 0.52 0.44 0.43 0.39 0.42 0.51 0.50 0.51
0.93 0.98 1.01 1.05 1.07 1.09 1.06 0.93 0.84 0.74 0.75 0.75 0.72 0.71 0.69 0.69 0.69 0.70 0.76 0.83 0.76 0.70 0.69 0.66 0.63 0.60 0.58 0.59 0.71 0.86 0.84 0.79 0.65 0.54 0.56 0.66 0.53 0.47 0.42 0.42 0.49 0.51 0.53
1.06 1.05 1.02 0.96 0.91 0.88 0.84 0.73 0.68 0.60 0.59 0.60 0.60 0.61 0.64 0.61 0.68 0.83 0.86 0.81 0.66 0.58 0.61 0.67 0.71 0.69 0.70 0.70 0.72 0.87 0.99 1.05 0.90 0.64 0.54 0.62 0.55 0.51 0.49 0.45 0.45 0.50 0.52
0.94 0.88 0.81 0.75 0.68 0.61 0.60 0.56 0.53 0.47 0.47 0.46 0.46 0.48 0.56 0.57 0.71 0.84 0.75 0.69 0.63 0.57 0.58 0.58 0.59 0.59 0.57 0.60 0.70 0.78 1.06 1.35 1.13 0.82 0.51 0.65 0.66 0.71 0.83 0.52 0.44 0.47 0.51